Погода в Данилкине

Россия / Саратовская область     51°16′11″N   43°05′56″E
темп.,
°C
ветер,
м/с
пор.,
м/с
влажн.,
%
обл.,
%
осадки,
мм/ч
давл.,
гПа
погр.,
м
28 июня, вт
вт2801:00+18зсз22710 0.0 101714
04:00+17сз348395 0.5 101663
07:00+19зсз36857 0.3 1015168
10:00+25с57700 0.3 1015630
13:00+27ссв78490 0.0 10151789
16:00+27ссв784937 0.0 10152383
19:00+23ссв79640 0.1 1016814
22:00+17св612660 0.1 1018403
29 июня, ср
ср2901:00+13св511730 0.0 1019261
04:00+11всв478636 0.0 1020130
07:00+13всв357534 0.0 1021177
10:00+18всв335612 0.0 1021988
13:00+20ссв3349100 0.1 10212106
16:00+20всв1345100 0.1 10201291
19:00+19св365681 0.0 1019314
22:00+14всв47721 0.0 1020101
30 июня, чт
чт3001:00+12св22740 0.0 102016
04:00+11ссв22770 0.0 102010
07:00+14с12690 0.0 102090
10:00+19ссз34535 0.0 1019852
13:00+21сз564897 0.0 10182182
16:00+21сз3652100 0.0 10161907
19:00+20ссз3559100 0.0 1015132
22:00+16ссз33674 0.0 101622
1 июля, пт
пт101:00+13сз36785 0.0 101782
04:00+14сз3874100 0.0 1016171
07:00+14с4107753 0.0 1017282
10:00+19св68524 0.0 10181089
13:00+20ссв67411 0.0 10191819
16:00+21ссв56415 0.0 10191949
19:00+20с56530 0.0 1019873
22:00+14ссв22670 0.0 102016
2 июля, сб
сб201:00+13с12715 0.0 102110
04:00+12сз23740 0.0 102119
07:00+14зсз25734 0.0 1021128
10:00+20сз34560 0.0 1020645
13:00+24сз34440 0.0 10191552
16:00+25зсз34440 0.0 10181782
19:00+24зсз35534 0.0 1017370
22:00+18з33685 0.0 101625